Location: Brookfield Center
(41.2406°N, 80.5579°W)
Time: 05:27:11
(UTC+00:00)

STARLINK-76 - Pass Details

Date: 18 January 2020
Orbit: 528 x 531 km, 53.0° (Epoch: 26 February)

Event Time Altitude Azimuth Distance (km) Brightness Sun altitude
Exits shadow 11:29:11 -1° 220° (SW) 2,735 6.9 -14.0°
Rises 11:29:24 0° 220° (SW) 2,651 6.9 -14.0°
Reaches altitude 10° 11:31:37 10° 216° (SW) 1,765 6.0 -13.6°
Maximum altitude 11:35:33 58° 137° (SE) 618 4.1 -12.9°
Drops below altitude 10° 11:39:31 10° 58° (ENE) 1,776 6.8 -12.1°
Sets 11:41:45 0° 55° (NE) 2,669 7.7 -11.7°
